EHI
0 0 0 0 0 0 0 0 0 0 0 0 0 0 0 0 0 0 0 1 3 3 2 1 2 3 3 2 1 1 1 0 0 0 0 0 0 1 1 0 1 2 2
0 0 0 0 0 0 0 0 0 0 0 0 0 0 0 0 0 0 0 1 3 3 2 2 3 3 3 3 2 2 1 1 1 0 0 0 0 1 2 1 1 1 1
0 0 0 0 0 0 0 0 0 0 0 0 0 0 0 0 0 0 0 0 1 1 2 3 3 3 3 3 3 3 2 2 2 2 2 1 1 1 2 2 1 1 0
0 0 0 0 0 0 0 0 0 0 0 0 0 0 0 0 0 0 0 0 0 0 1 1 3 3 3 3 3 3 3 4 5 5 5 4 2 1 1 1 1 1 1
0 0 0 0 0 0 0 0 0 0 0 0 0 0 0 0 0 0 0 0 0 0 0 1 2 3 3 3 3 3 4 5 7 7 7 6 3 2 1 1 1 1 0
0 0 0 0 0 0 0 0 0 0 0 0 0 0 0 0 0 0 0 0 0 0 0 0 1 1 2 3 3 3 4 6 7 8 8 6 4 4 4 3 1 0 0
0 0 0 0 0 0 0 0 0 0 0 0 0 0 0 0 0 0 0 0 0 0 0 0 0 0 1 1 2 2 3 5 6 6 7 6 6 5 5 3 1 1 0
0 0 0 0 0 0 0 0 0 0 0 0 0 0 0 0 0 0 0 0 0 0 0 0 0 0 0 0 1 1 1 3 4 4 5 5 5 4 4 3 3 2 1
0 0 0 0 0 0 0 0 0 0 0 0 0 0 0 0 0 0 0 0 0 0 0 0 0 0 0 0 0 0 0 1 2 3 3 2 3 3 3 3 3 3 3
0 0 0 0 0 0 0 0 0 0 0 0 0 0 0 0 0 0 0 0 0 0 0 0 0 0 0 0 0 0 0 0 1 1 1 0 1 2 3 3 3 3 3
0 0 0 0 0 0 0 0 0 0 0 0 0 0 0 0 0 0 0 0 0 0 0 0 0 0 0 0 0 0 0 0 0 0 0 0 1 2 2 2 3 3 3
0 0 0 0 0 0 0 0 0 0 0 0 0 0 0 0 0 0 0 0 0 0 0 0 0 0 0 0 0 0 0 0 0 0 0 0 1 2 1 1 1 2 2
0 0 0 0 0 0 0 0 0 0 0 0 0 0 0 0 0 0 0 0 0 0 0 0 0 0 0 0 0 0 0 0 0 0 0 0 1 1 1 1 1 1 1
0 0 0 0 0 0 0 0 0 0 0 0 0 0 0 0 0 0 0 0 0 0 0 0 0 0 0 0 0 0 0 0 0 0 0 0 0 0 0 1 1 1 1
0 0 0 0 0 0 0 0 0 0 0 0 0 0 0 0 0 0 0 0 0 0 0 0 0 0 0 0 0 0 0 0 0 0 0 0 0 0 0 0 1 1 0
0 0 0 0 0 0 0 0 0 0 0 0 0 0 0 0 0 0 0 0 0 0 0 0 0 0 0 0 0 0 0 0 0 0 0 0 0 0 0 0 0 0 0
0 0 0 0 0 0 0 0 0 0 0 0 0 0 0 0 0 0 0 0 0 0 0 0 0 0 0 0 0 0 0 0 0 0 0 0 0 0 0 0 0 0 0
0 0 0 0 0 0 0 0 0 0 0 0 0 0 0 0 0 0 0 0 0 0 0 0 0 0 0 0 0 0 0 0 0 0 0 0 0 0 0 0 0 0 0
0 0 0 0 0 0 0 0 0 0 0 0 0 0 0 0 0 0 0 0 0 0 0 0 0 0 0 0 0 0 0 0 0 0 0 0 0 0 0 0 0 0 0
0 0 0 0 0 0 0 0 0 0 0 0 0 0 0 0 0 0 0 0 0 0 0 0 0 0 0 0 0 0 0 0 0 0 0 0 0 0 0 0 0 0 0
0 0 0 0 0 0 0 0 0 0 0 0 0 0 0 0 0 0 0 0 0 0 0 0 0 0 0 0 0 0 0 0 0 0 0 0 0 0 0 0 0 0 0
0 0 0 0 0 0 0 0 0 0 0 0 0 0 0 0 0 0 0 0 0 0 0 0 0 0 0 0 0 0 0 0 0 0 0 0 0 0 0 0 0 0 0
0 0 0 0 0 0 0 0 0 0 0 0 0 0 0 0 0 0 0 0 0 0 0 0 0 0 0 0 0 0 0 0 0 0 0 0 0 0 0 0 0 0 0
0 0 0 0 0 0 0 0 0 0 0 0 0 0 0 0 0 0 0 0 0 0 0 0 0 0 0 0 0 0 0 0 0 0 0 0 0 0 0 0 0 0 0
0 0 0 0 0 0 0 0 0 0 0 0 0 0 0 0 0 0 0 0 0 0 0 0 0 0 0 0 0 0 0 0 0 0 0 0 0 0 0 0 0 0 0
0 0 0 0 0 0 0 0 0 0 0 0 0 0 0 0 0 0 0 0 0 0 0 0 0 0 0 0 0 0 0 0 0 0 0 0 0 0 0 0 0 0 0
Wind_Speed
2 2 2 2 3 2 2 3 3 4 4 3 3 3 3 2 2 1 1 1 0 0 0 1 2 2 3 4 4 3 3 2 1 1 2 2 2 3 5 6 7 7 8
3 3 3 3 3 3 2 2 3 3 3 2 3 3 3 2 2 2 1 2 2 1 1 1 2 2 3 3 4 4 3 1 1 1 2 2 2 3 4 6 7 8 8
4 3 3 3 3 3 4 3 4 3 4 4 4 3 2 2 2 2 2 2 2 2 2 2 2 3 3 4 4 4 4 1 1 2 2 3 3 3 4 6 6 7 7
4 4 3 3 3 3 3 3 3 3 4 3 3 3 3 3 3 2 2 2 2 2 2 3 3 3 3 4 5 5 4 2 1 1 2 3 4 4 4 6 6 6 6
5 4 3 3 4 4 4 4 4 3 3 3 3 3 3 3 3 3 3 3 3 2 2 3 4 4 4 4 5 5 5 4 3 2 2 3 4 4 4 5 5 6 6
4 4 3 4 4 4 4 4 4 3 2 2 3 4 3 3 3 4 3 3 3 3 2 3 2 3 4 5 5 5 5 4 4 3 2 2 4 4 4 4 5 5 5
4 4 3 4 4 3 3 4 3 4 4 3 3 4 4 4 4 4 4 4 4 4 3 3 2 2 2 4 5 5 5 4 4 3 2 2 3 4 4 4 5 5 5
4 4 4 3 3 3 5 5 4 3 3 4 2 3 4 5 5 5 4 4 5 4 4 5 3 3 2 2 4 5 5 5 5 4 3 2 2 3 3 4 4 5 5
4 4 4 3 3 3 3 3 3 3 3 3 3 3 2 1 3 4 4 4 5 4 4 4 5 4 3 2 2 4 5 5 5 5 4 3 1 2 3 3 3 4 4
3 4 4 4 3 3 3 3 3 2 3 3 3 2 1 2 1 3 4 4 5 4 5 4 4 4 4 2 3 4 4 4 5 5 5 4 2 1 1 3 4 3 4
3 3 3 3 3 3 3 3 4 4 2 2 2 2 2 2 2 1 2 4 4 3 4 3 3 4 4 3 2 3 5 5 5 5 5 4 4 3 2 3 4 4 4
2 3 3 3 3 2 3 3 3 4 3 3 2 2 2 1 1 1 0 2 3 4 4 3 3 4 3 3 4 6 5 5 5 5 5 5 4 4 4 3 3 4 4
1 1 2 2 2 2 2 3 3 3 3 3 2 2 1 1 0 1 1 1 2 3 3 3 3 4 4 3 4 7 6 6 5 5 5 5 5 5 5 4 2 3 4
1 0 1 2 2 2 3 3 3 2 3 3 3 2 2 2 1 1 1 1 2 3 3 4 3 3 4 3 5 6 5 7 6 6 6 5 4 5 5 5 4 3 4
1 1 2 2 2 2 3 3 2 2 3 2 2 2 2 2 2 1 1 1 2 1 3 4 3 4 4 3 5 3 3 6 7 7 6 5 4 4 5 5 4 3 4
1 2 2 2 2 3 3 3 2 2 3 2 2 3 2 2 2 2 1 1 1 2 1 3 2 3 4 5 6 4 4 8 8 7 7 6 6 5 5 5 5 5 4
2 2 2 2 2 2 2 3 2 2 3 3 3 3 3 2 2 2 2 2 1 1 1 3 2 3 4 4 5 4 3 3 4 7 7 7 6 6 6 6 6 5 5
2 2 2 3 2 2 2 2 2 2 2 2 2 2 2 2 3 2 2 2 1 0 1 2 3 3 3 4 4 4 4 4 3 6 7 7 8 7 7 7 6 6 5
2 2 3 2 2 2 2 1 2 1 1 1 1 1 2 1 2 2 1 1 1 1 0 1 3 2 3 3 4 4 4 3 4 5 6 7 8 8 8 7 7 6 6
3 3 2 2 2 1 1 1 2 2 2 2 1 1 1 1 1 1 1 1 1 2 1 1 2 3 3 3 3 3 4 3 4 4 5 5 7 8 9 9 9 8 7
3 3 2 1 1 1 1 1 1 1 1 2 2 2 2 2 2 1 1 1 0 1 1 1 2 2 3 3 3 3 3 4 4 3 3 3 4 3 4 7 8 9 8
2 2 2 2 1 0 0 1 1 1 0 1 1 2 2 3 4 4 4 2 1 1 1 1 1 2 3 3 2 2 2 3 4 3 2 4 3 3 4 4 7 9 9
3 2 2 2 1 2 2 1 1 1 0 1 1 1 2 3 3 2 4 4 4 5 3 2 2 3 3 3 2 3 2 3 4 4 2 4 3 4 4 6 10 10 9
3 3 3 3 2 3 3 2 1 1 0 1 2 2 1 2 2 2 2 3 3 4 4 2 3 4 4 4 4 3 4 3 4 3 1 3 3 3 5 4 9 10 8
3 3 3 3 3 4 5 4 2 1 0 2 2 2 2 2 5 4 1 2 4 5 5 6 7 7 9 9 6 2 2 2 3 3 1 1 3 3 3 4 5 8 8
4 4 3 3 4 4 6 6 3 1 1 2 2 2 4 4 6 4 2 2 3 5 5 5 6 7 6 7 8 4 3 3 3 3 2 1 2 2 3 3 3 3 4
Wind_Direction
52 37 24 20 11 10 10 7 7 10 16 14 19 29 28 31 33 25 346 351 294 203 99 32 33 28 19 17 18 9 9 42 100 119 134 136 139 154 159 160 156 154 150
59 48 36 25 14 8 11 21 21 22 19 18 14 15 23 20 31 28 11 347 335 338 330 336 356 7 9 9 10 360 350 2 142 150 153 148 136 146 155 155 155 155 153
57 55 44 26 8 10 21 26 21 25 25 23 14 8 24 22 20 8 9 355 333 328 337 339 352 357 3 6 6 3 356 23 138 153 156 155 147 142 147 149 149 150 154
58 57 47 24 11 22 23 26 22 21 18 13 8 6 16 16 12 7 15 9 358 360 353 351 0 2 9 13 10 1 19 38 76 120 137 146 152 151 145 149 151 150 152
55 62 49 25 25 31 22 21 28 24 17 5 3 18 13 14 7 25 25 17 15 9 353 355 7 11 23 21 10 12 28 36 51 75 105 133 147 151 152 153 158 157 159
53 57 49 31 33 36 23 22 24 20 18 2 17 18 4 7 18 26 23 22 21 21 18 5 1 356 14 15 3 11 23 27 33 49 71 135 156 158 159 157 160 163 166
53 58 48 35 35 42 30 25 24 21 12 7 34 7 355 11 27 20 17 25 22 14 17 13 12 0 352 360 2 7 9 15 20 36 53 109 146 157 162 166 167 168 170
48 59 56 45 38 40 32 28 35 30 15 25 64 53 9 355 355 7 12 21 12 10 16 18 11 8 1 3 355 0 4 8 15 21 32 55 141 158 165 176 177 176 177
51 55 56 57 46 52 44 32 39 56 34 15 45 100 95 340 323 337 3 14 6 9 3 4 18 11 13 11 351 356 5 6 8 12 17 28 53 180 184 188 188 187 184
46 52 57 62 58 53 47 36 49 51 65 30 13 37 103 158 110 335 335 349 3 12 0 6 6 3 5 1 356 10 11 5 8 8 9 9 355 336 224 215 210 208 202
25 41 55 60 56 50 49 45 46 48 60 67 41 21 36 42 70 114 331 333 343 344 349 352 359 356 357 359 350 360 12 10 9 8 5 0 356 350 318 257 229 220 220
5 16 49 56 54 52 50 49 50 52 53 59 55 52 65 60 23 89 312 319 324 318 333 348 3 353 353 356 352 357 1 6 6 3 0 358 355 347 328 300 247 227 231
1 347 35 50 48 46 55 59 56 47 47 54 52 47 51 54 144 140 127 313 327 316 331 341 346 349 357 358 350 354 357 359 359 355 350 349 349 346 338 328 283 252 251
205 214 74 62 53 53 59 61 55 39 47 50 47 45 40 14 31 105 155 142 1 337 338 322 324 346 350 348 348 354 353 358 356 352 349 345 343 342 341 339 329 300 277
170 102 84 76 57 56 61 66 54 34 40 40 37 41 39 6 17 32 86 148 143 346 318 312 327 332 339 341 347 349 344 351 357 358 352 350 351 347 335 326 320 319 312
98 91 80 80 64 53 57 63 48 36 47 26 30 41 24 360 10 18 31 53 133 162 261 294 296 305 328 345 350 347 340 348 352 357 359 358 357 353 342 335 328 319 313
112 111 108 94 80 63 57 63 46 44 47 24 18 33 12 0 14 7 20 35 44 127 224 296 298 314 338 340 338 340 342 341 336 347 354 354 353 351 347 342 335 328 321
115 117 107 97 89 77 66 69 52 49 50 25 9 23 1 12 14 5 22 18 358 311 180 297 313 324 326 326 331 337 342 344 330 340 348 352 349 343 338 335 330 318 310
117 106 101 101 100 97 86 78 84 66 37 13 4 8 333 16 359 342 357 359 339 358 31 287 304 309 313 327 337 333 337 332 329 340 345 344 342 338 332 326 324 317 310
131 125 123 126 125 119 106 86 81 57 21 359 349 343 313 306 247 271 330 328 350 12 1 345 316 318 318 319 341 338 335 332 328 335 336 333 335 338 332 325 320 316 309
145 144 132 119 109 124 138 116 96 75 34 3 354 345 327 334 330 316 313 285 6 18 351 343 323 329 322 330 329 323 326 319 315 318 323 324 328 325 321 319 316 312 307
149 139 142 145 149 209 143 127 113 105 56 5 333 327 329 351 355 356 350 338 322 293 264 264 282 287 286 284 292 308 314 333 317 314 330 308 318 310 307 302 308 312 309
165 163 177 170 197 233 222 168 108 129 147 246 255 287 326 339 345 345 337 337 331 327 302 245 244 261 269 266 271 291 287 275 269 281 306 294 306 301 303 311 315 317 314
175 183 197 199 208 240 241 243 250 120 172 255 248 233 253 298 305 318 331 334 317 311 303 290 243 255 259 257 242 251 258 274 275 279 261 278 295 291 302 309 315 320 321
190 200 202 202 211 244 250 250 249 162 231 274 267 249 247 262 292 307 320 305 308 306 301 303 296 292 294 296 289 287 294 301 298 290 266 242 285 297 297 299 311 320 320
201 203 213 216 215 232 248 249 240 185 222 262 278 272 273 274 288 295 271 260 282 286 296 308 312 310 304 300 295 260 228 240 265 280 262 235 279 314 311 296 301 310 315